Bradford, PA

8:49 PM EST on December 17, 2017 (GMT -0500)
Bradford Regional

Weather History for KBFD - January, 2014

Change the Weather History Date:

Sunday, January 5, 2014

  Actual Average Record
Temperature  
Mean Temperature 26 °F 21 °F  
Max Temperature 41 °F 29 °F 57 °F (1998)
Min Temperature 11 °F 14 °F -11 °F (1969)
Degree Days  
Heating Degree Days 39 38  
Month to date heating degree days 257 190  
Since 1 July heating degree days 3193 3246  
Cooling Degree Days 0 0  
Month to date cooling degree days 0 0  
Year to date cooling degree days 0 0  
Moisture  
Dew Point 16 °F    
Average Humidity 60    
Maximum Humidity 82    
Minimum Humidity 37    
Precipitation  
Precipitation 0.07 in 0.12 in 0.87 in (2007)
Month to date precipitation 0.12 0.59  
Year to date precipitation 0.12 0.59  
Sea Level Pressure  
Sea Level Pressure 29.89 in    
Wind  
Wind Speed 7 mph (SSE)    
Max Wind Speed 20 mph    
Max Gust Speed 33 mph    
Visibility 9 miles    
Events Rain    
T = Trace of Precipitation, MM = Missing Value Source: NWS Daily Summary

Daily Weather History Graph

Daily Weather History Graph

Search for Another Location

Airport or City:

Trip Planner

Search our weather history database for the weather conditions in past years. The results will help you decide how hot, cold, wet, or windy it might be!

Date:

Astronomy

Jan. 05, 2014 Rise Set
Actual Time 7:42 AM EST 4:58 PM EST
Civil Twilight 7:10 AM EST 5:29 PM EST
Nautical Twilight 6:35 AM EST 6:04 PM EST
Astronomical Twilight 6:02 AM EST 6:38 PM EST
Moon 10:17 AM EST (1/5) 10:29 PM EST (1/5)
Length of Visible Light 10h 18m
Length of Day
9h 16m
Waxing Crescent, 24% of the Moon is Illuminated
Jan 5
Waxing Crescent
Jan 7
First Quarter
Jan 15
Full
Jan 24
Last Quarter
Jan 30
New

Hourly Weather History & Observations

Time (EST) Temp. Windchill Dew Point Humidity Pressure Visibility Wind Dir Wind Speed Gust Speed Precip Events Conditions
12:53 AM 25.0 °F 19.3 °F 3.9 °F 41% 30.12 in 10.0 mi South 4.6 mph - N/A   Clear
1:53 AM 26.1 °F - 3.9 °F 39% 30.11 in 10.0 mi Calm Calm - N/A   Clear
2:53 AM 18.0 °F - 3.9 °F 54% 30.13 in 10.0 mi Calm Calm - N/A   Clear
3:53 AM 16.0 °F - 3.9 °F 59% 30.11 in 10.0 mi Calm Calm - N/A   Scattered Clouds
4:53 AM 14.0 °F - 5.0 °F 67% 30.10 in 10.0 mi Calm Calm - N/A   Partly Cloudy
5:53 AM 12.0 °F - 3.9 °F 70% 30.12 in 10.0 mi Calm Calm - N/A   Partly Cloudy
6:53 AM 14.0 °F 8.2 °F 3.0 °F 62% 30.12 in 10.0 mi SE 3.5 mph - N/A   Clear
7:53 AM 14.0 °F 8.2 °F 3.9 °F 64% 30.12 in 10.0 mi ESE 3.5 mph - N/A   Clear
8:53 AM 19.0 °F 13.9 °F 6.1 °F 57% 30.14 in 10.0 mi SSE 3.5 mph - N/A   Partly Cloudy
9:53 AM 30.9 °F 24.3 °F 10.0 °F 42% 30.10 in 10.0 mi SSE 6.9 mph - N/A   Mostly Cloudy
10:30 AM 33.1 °F 26.9 °F 14.0 °F 46% 30.02 in 10.0 mi South 6.9 mph - N/A   Overcast
10:53 AM 34.0 °F 27.2 °F 16.0 °F 48% 30.07 in 10.0 mi South 8.1 mph - N/A   Overcast
11:53 AM 34.0 °F 28.0 °F 18.0 °F 52% 30.02 in 10.0 mi SSE 6.9 mph - N/A   Overcast
12:53 PM 35.1 °F 31.0 °F 19.9 °F 54% 29.96 in 10.0 mi SSE 4.6 mph - N/A   Overcast
1:53 PM 35.1 °F 27.4 °F 21.9 °F 59% 29.93 in 10.0 mi SE 10.4 mph - N/A   Overcast
2:53 PM 34.0 °F 28.0 °F 19.9 °F 56% 29.91 in 10.0 mi SE 6.9 mph - N/A   Overcast
3:53 PM 35.1 °F 27.4 °F 24.1 °F 64% 29.88 in 10.0 mi SE 10.4 mph - N/A   Overcast
4:48 PM 35.6 °F 26.6 °F 26.6 °F 70% 29.77 in 10.0 mi SE 13.8 mph - N/A   Overcast
4:53 PM 36.0 °F 28.5 °F 27.0 °F 70% 29.84 in 10.0 mi SSE 10.4 mph - N/A   Overcast
5:53 PM 35.1 °F 26.9 °F 30.0 °F 82% 29.79 in 10.0 mi SSE 11.5 mph - N/A   Overcast
6:11 PM 36.0 °F 26.7 °F 30.9 °F 82% 29.70 in 9.0 mi SE 15.0 mph - N/A   Overcast
6:53 PM 36.0 °F 27.1 °F 33.1 °F 89% 29.75 in 10.0 mi SSE 13.8 mph 24.2 mph 0.00 in Rain Light Rain
7:13 PM 36.0 °F 26.3 °F 33.1 °F 89% 29.66 in 10.0 mi SSE 16.1 mph 26.5 mph 0.00 in   Overcast
7:53 PM 37.0 °F 28.5 °F - N/A% 29.70 in 8.0 mi SSE 13.8 mph 28.8 mph 0.00 in Rain Light Rain
8:53 PM 37.9 °F 28.9 °F - N/A% 29.64 in 7.0 mi SSE 16.1 mph 25.3 mph 0.00 in   Overcast
9:53 PM 39.9 °F 31.8 °F - N/A% 29.56 in 4.0 mi SSE 15.0 mph 27.6 mph 0.00 in   Haze
10:27 PM 39.9 °F 32.1 °F - N/A% 29.49 in 9.0 mi SSE 13.8 mph 32.2 mph N/A   Overcast
10:53 PM 39.9 °F 31.4 °F - N/A% 29.51 in 10.0 mi South 16.1 mph 31.1 mph 0.00 in Rain Light Rain
11:53 PM 39.9 °F 32.5 °F - N/A% 29.48 in 4.0 mi South 12.7 mph 26.5 mph 0.05 in Rain Rain